TimePST,TemperatureF,Dew PointF,Humidity,Sea Level PressureIn,VisibilityMPH,Wind Direction,Wind SpeedMPH,Gust SpeedMPH,PrecipitationIn,Events,Conditions,WindDirDegrees,DateUTC
12:55 AM,28.0,-7.1,22,30.21,10.0,Calm,Calm,-,N/A,,Clear,0,2012-11-14 08:55:00
1:55 AM,27.0,-7.1,23,30.20,10.0,Calm,Calm,-,N/A,,Clear,0,2012-11-14 09:55:00
2:55 AM,26.1,-6.0,25,30.18,10.0,NW,3.5,-,N/A,,Clear,310,2012-11-14 10:55:00
3:55 AM,24.1,-7.1,25,30.19,10.0,Calm,Calm,-,N/A,,Clear,0,2012-11-14 11:55:00
4:55 AM,24.1,-8.0,24,30.21,10.0,Calm,Calm,-,N/A,,Clear,0,2012-11-14 12:55:00
5:55 AM,23.0,-9.0,24,30.22,10.0,Calm,Calm,-,N/A,,Clear,0,2012-11-14 13:55:00
6:55 AM,25.0,-7.1,24,30.24,10.0,Calm,Calm,-,N/A,,Clear,0,2012-11-14 14:55:00
7:55 AM,30.9,-2.9,23,30.26,10.0,Calm,Calm,-,N/A,,Clear,0,2012-11-14 15:55:00
8:55 AM,36.0,-0.0,22,30.25,10.0,Calm,Calm,-,N/A,,Clear,0,2012-11-14 16:55:00
9:55 AM,39.9,-0.0,19,30.25,10.0,Calm,Calm,-,N/A,,Clear,0,2012-11-14 17:55:00
10:55 AM,50.0,1.9,14,30.22,10.0,Calm,Calm,-,N/A,,Clear,0,2012-11-14 18:55:00
11:55 AM,55.0,3.0,12,30.18,10.0,Calm,Calm,-,N/A,,Clear,0,2012-11-14 19:55:00
12:55 PM,57.9,3.0,11,30.15,10.0,SSE,3.5,-,N/A,,Clear,160,2012-11-14 20:55:00
1:55 PM,62.1,3.9,10,30.12,10.0,Calm,Calm,-,N/A,,Clear,0,2012-11-14 21:55:00
2:55 PM,64.0,5.0,10,30.12,10.0,SSE,3.5,-,N/A,,Clear,160,2012-11-14 22:55:00
3:55 PM,62.1,6.1,11,30.12,10.0,South,3.5,-,N/A,,Clear,170,2012-11-14 23:55:00
4:55 PM,54.0,3.9,13,30.12,10.0,SW,3.5,-,N/A,,Clear,230,2012-11-15 00:55:00
5:55 PM,48.9,3.9,16,30.14,10.0,WNW,4.6,-,N/A,,Clear,290,2012-11-15 01:55:00
6:55 PM,46.9,3.9,17,30.16,10.0,Calm,Calm,-,N/A,,Clear,0,2012-11-15 02:55:00
7:55 PM,-9999,-9999,N/A,-9999,10.0,Calm,Calm,-,N/A,,Unknown,0,2012-11-15 03:55:00
8:55 PM,42.1,3.0,20,30.17,10.0,Calm,Calm,-,N/A,,Clear,0,2012-11-15 04:55:00
9:55 PM,43.0,3.9,20,30.16,10.0,Calm,Calm,-,N/A,,Clear,0,2012-11-15 05:55:00
10:55 PM,39.9,3.0,21,30.14,10.0,Calm,Calm,-,N/A,,Clear,0,2012-11-15 06:55:00
11:55 PM,39.9,3.0,21,30.14,10.0,Calm,Calm,-,N/A,,Clear,0,2012-11-15 07:55:00